星链-11566 (STARLINK-11566)

导读

STARLINK-11566是美国太空探索技术公司星链计划的低轨通信卫星,于2025年2月8日发射入轨,属于Starlink星座组网的组成部分。星链旨在构建全球覆盖的卫星互联网,这颗卫星继承该系列技术特点,为全球偏远地区、海洋空域用户提供宽带通信服务,进一步扩充星链星座的服务容量与覆盖能力。

基本信息
目录编号:
62914
目录名称:
STARLINK-11566
国际标识:
2025-027H
轨道中心:
EARTH
卫星名称:
星链-11566
卫星全名:
星链-11566 (STARLINK-11566)
卫星状态:
在轨 (已飞行574 天)
发射日期:
2025-02-08 UTC
国别 :
美国 (US)
星等 :
--
轨道信息
数据来源 国际轨道数据
星历时间: 2026-09-04T23:22:56+0800
16小时前
查看轨道信息
半长轴: 6734.595km
偏心率: 0.000157
轨道倾角: 42.999°
近地点辐角 280.709°
升交点赤经 349.259°
平近点角 79.361°
近地点: 355.4km
远地点: 357.516km
周期: 91.670分钟
每日圈数: 15.708532
详细信息
固有亮度:
5
最大亮度:
2.5
卫星平台:
Starlink V1.0
覆盖范围:
全球
运营商:
太空探索技术公司
运营商所在国:
美国
制造商(研发单位):
太空探索技术公司
制造商所在国:
美国
使用方式:
暂无
卫星简介
Starlink 计划是 SpaceX 推出的全球卫星互联网项目,通过发射低轨道卫星,为全球尤其是偏远地区提供高速、低延迟的互联网服务。自 2019 年起,Starlink 已部署数千颗卫星,旨在缩小全球数字鸿沟,推动互联网普及。该项目还为军事、航空等行业提供通信支持,带来广泛经济效益。
2D轨道图
3D轨道图
轨道高度分析图
轨道倾角分析图
轨道综合分析图
查看轨道综合分析图